Regional Weather Roundup
Issued by NWS

Home | Current Version | Previous Version | Graphics & Text | Print | Product List | Glossary On
Versions: 1 2 3 4 5 6 7 8 9 10 11 12 13 14 15 16 17 18 19 20 21 22 23 24 25 26 27 28 29 30 31 32 33 34 35 36 37 38 39 40 41 42 43 44 45 46 47 48 49 50
000
ASUS43 KMPX 280210
RWRMN
WEATHER ROUNDUP FOR MINNESOTA
NATIONAL WEATHER SERVICE TWIN CITIES/CHANHASSEN MN
900 PM CDT FRI MAR 27 2015


NOTE: "FAIR" INDICATES FEW OR NO CLOUDS BELOW 12,000 FEET WITH NO
SIGNIFICANT WEATHER AND/OR OBSTRUCTIONS TO VISIBILITY. N/A MEANS
CURRENT SKY AND/OR WEATHER CONDITIONS ARE NOT AVAILABLE.

MNZ060>063-068>070-280300-
   Twin Cities Metro

CITY           SKY/WX    TMP DP  RH WIND       PRES   REMARKS
TWIN CITIES    MOCLDY    29   3  33 S7        30.17S WCI  22
ST PAUL        MOCLDY    28   7  41 S5        30.18S WCI  23
CRYSTAL        MOCLDY    30   7  37 S3        30.15S
BLAINE         MOCLDY    30   7  37 SW5       30.15S WCI  25
LAKEVILLE      MOCLDY    25  10  54 SE3       30.16S
EDEN PRAIRIE   CLOUDY    27   8  44 S5        30.15S WCI  22
SOUTH ST PAUL  MOCLDY    29   5  36 S3        30.17S
LAKE ELMO      FAIR      28  10  47 S6        30.17S WCI  22
$$
MNZ001>005-007-008-013>017-022>024-027-028-280300-
   Northwest Minnesota

CITY           SKY/WX    TMP DP  RH WIND       PRES   REMARKS
BEMIDJI        MOCLDY    29   7  38 S3        30.09R
HALLOCK        PTCLDY    28  25  86 SE9       30.10R WCI  20
ROSEAU         CLOUDY    28  19  69 CALM      30.11R
WARROAD        PTCLDY    25  18  74 CALM      30.12R
THIEF RVR FALL PTCLDY    28  19  69 CALM      30.10R
CROOKSTON      CLOUDY    30  21  69 S7        30.11S WCI  23
FOSSTON        PTCLDY    25  14  63 CALM      30.10R
DETROIT LAKES  PTCLDY    30  14  51 SW3       30.10S
MOORHEAD       CLOUDY    30  21  69 S6        30.12R WCI  24
PARK RAPIDS    CLOUDY    29  10  45 SW5       30.09R WCI  24
MAHNOMEN       FAIR      27  14  59 SW7       30.09R WCI  19
$$
MNZ006-009>011-018-025>026-280300-
   North Central Minnesota

CITY           SKY/WX    TMP DP  RH WIND       PRES   REMARKS
BAUDETTE       PTCLDY    26   8  46 E5        30.10R WCI  20
FLAG ISLAND    PTCLDY    21  10  63 CALM      30.11R
INTL FALLS     CLEAR     23  11  60 W3        30.11R
WASKISH        CLOUDY    25  12  58 CALM      30.11R
BIG FORK       PTCLDY    27   9  46 CALM      30.11R
LONGVILLE      CLOUDY    28  10  47 CALM      30.10S
GRAND RAPIDS   MOCLDY    25   3  39 S5        30.10S WCI  19
CRANE LAKE     CLEAR     19  12  73 CALM      30.14R
ORR            CLEAR     25  -2  30 CALM      30.09R
COOK           CLEAR     23   1  39 CALM      30.11R
WALKER         FAIR      29   8  39 CALM      30.10R
$$
MNZ012-019>021-037-280300-
   Northeast Minnesota

CITY           SKY/WX    TMP DP  RH WIND       PRES   REMARKS
DULUTH         MOCLDY    23  11  60 E8        30.13R WCI  14
ELY            CLEAR     25   9  50 SE7       30.11R WCI  17
HIBBING        PTCLDY    23   6  48 CALM      30.10S
EVELETH        PTCLDY    25   9  50 S3        30.12R
DULUTH HARBOR  MOCLDY    28  18  64 CALM      30.19R
TWO HARBORS    PTCLDY    21  10  63 NE5       30.14S WCI  15
SILVER BAY     CLEAR     19   9  63 CALM      30.15S
GRAND MARAIS     N/A     16  10  77 NW3       30.22S
G MARAIS ARPRT CLEAR     10   3  72 CALM      30.13S
$$
MNZ029>031-032-039>041-046>048-054>057-064-280300-
   West Central Minnesota

CITY           SKY/WX    TMP DP  RH WIND       PRES   REMARKS
FERGUS FALLS   CLOUDY    30  12  47 S7        30.13S WCI  23
WHEATON        CLOUDY    28  21  74 CALM      30.12S
MORRIS         CLOUDY    32  18  55 S5        30.10S WCI  27
ALEXANDRIA     CLOUDY    29  15  56 SE3       30.11S
ELBOW LAKE     CLOUDY    31  15  52 SE9       30.10F WCI  23
WADENA         CLOUDY    27  12  54 S5        30.10S WCI  21
GLENWOOD       CLOUDY    28  18  64 E5        30.11S WCI  23
APPLETON       CLOUDY    36  16  44 SE6       30.11R
BENSON         CLOUDY    30  19  64 S10       30.12R WCI  21
ORTONVILLE     LGT SNOW  30  21  69 S5        30.10R WCI  25
MADISON        CLOUDY    34  16  47 S6        30.10R WCI  29
WILLMAR        FAIR      30  18  59 SE9       30.14R WCI  22
$$
MNZ033>034-036-042>043-049>051-058-059-280300-
   Central Minnesota

CITY           SKY/WX    TMP DP  RH WIND       PRES   REMARKS
ST CLOUD       MOCLDY    27  12  53 SW5       30.15R WCI  22
SAUK CENTRE    CLOUDY    28  15  58 SE5       30.13S WCI  23
PAYNESVILLE    CLOUDY    26  12  55 NE3       30.14R
AITKIN         CLOUDY    30   7  37 CALM      30.11S
PINE RIVER     CLOUDY    30  10  43 CALM      30.14R
BRAINERD       CLOUDY    28   8  43 SE5       30.12S WCI  23
STAPLES        CLOUDY    28  12  50 S3        30.11S
LONG PRAIRIE   CLOUDY    28  19  69 SE3       30.12S
LITTLE FALLS   MOCLDY    30   9  40 CALM      30.14R
LITCHFIELD     CLOUDY    28  18  64 SE5       30.14S WCI  23
BUFFALO        MOCLDY    28   9  43 CALM      30.16S
MAPLE LAKE     MOCLDY    29   9  42 CALM      30.16R
$$
MNZ037-044-045-052-053-280300-
   East Central Minnesota

CITY           SKY/WX    TMP DP  RH WIND       PRES   REMARKS
PRINCETON      MOCLDY    30  12  47 SW5       30.15S WCI  25
MORA           MOCLDY    27  12  54 CALM      30.16S
CAMBRIDGE      MOCLDY    30  10  43 CALM      30.13S
RUSH CITY      CLOUDY    28   7  41 CALM      30.15R
MOOSE LAKE     MOCLDY    30   7  37 CALM      30.13R
HINCKLEY       CLOUDY    30  10  43 CALM      30.14S
CLOQUET        MOCLDY    25   7  46 SE5       30.13S WCI  19
MCGREGOR       CLOUDY    30  12  47 CALM      30.13S
$$
MNZ071>073-080-081-089-090-097-098-280300-
   Southwest Minnesota

CITY           SKY/WX    TMP DP  RH WIND       PRES   REMARKS
MONTEVIDEO     CLOUDY    30  21  69 S3        30.13R
GRANITE FALLS  CLOUDY    30  21  69 E6        30.13S WCI  24
CANBY          FLURRIES  32  21  63 S5        30.11R WCI  28
MARSHALL       CLOUDY    34  12  40 SE8       30.10S WCI  27
REDWOOD FALLS  CLOUDY    31  21  66 E7        30.12R WCI  24
OLIVIA         CLOUDY    28  18  64 E8        30.12S WCI  20
PIPESTONE      LGT SNOW  30  25  80 S5        30.05R WCI  25
WINDOM         CLOUDY    34  12  40 CALM      30.11R
WORTHINGTON    CLOUDY    30  18  59 SE7       30.10R WCI  23
JACKSON        CLOUDY    34  14  44 S6        30.11R WCI  29
TRACY          LGT SNOW  33  19  56 S3        30.11R
SLAYTON        CLOUDY    32  14  48 CALM      30.09R
$$
MNZ065>067-074>077-082>085-091>093-280300-
   South Central Minnesota

CITY           SKY/WX    TMP DP  RH WIND       PRES   REMARKS
MANKATO        MOCLDY    28  12  50 SE8       30.15R WCI  20
NEW ULM        CLOUDY    30  18  59 E6        30.13S WCI  24
ST JAMES       CLOUDY    32  21  64 E7        30.14R WCI  26
FAIRMONT       CLOUDY    30  18  59 SE6       30.12R WCI  24
GLENCOE        CLOUDY    28  16  59 E6        30.15R WCI  22
FARIBAULT      MOCLDY    27  12  54 E5        30.16S WCI  21
OWATONNA       MOCLDY    25  12  58 E5        30.15S WCI  19
WASECA         MOCLDY    25  14  63 E8        30.16S WCI  16
ALBERT LEA     MOCLDY    27  16  63 E7        30.15S WCI  19
$$
MNZ078>079-086>088-094>096-280300-
   Southeast Minnesota

CITY           SKY/WX    TMP DP  RH WIND       PRES   REMARKS
ROCHESTER      PTCLDY    24   8  50 CALM      30.16S
RED WING       MOCLDY    28   7  40 CALM      30.18R
STANTON        MOCLDY    27  10  48 S3        30.16S
DODGE CENTER   PTCLDY    23   9  54 CALM      30.15S
WINONA         PTCLDY    30   9  40 CALM      30.20R
AUSTIN         MOCLDY    23  12  63 CALM      30.16R
PRESTON        PTCLDY    24  11  58 CALM      30.17R
$$
ABBREVIATIONS USED IN REMARKS
   TC - TEMPERATURES IN CELSIUS
  WCI - WIND CHILL INDEX
   HX - HEAT INDEX
  VSB - VISIBILITY
$$



USA.gov is the U.S. government's official web portal to all federal, state and local government web resources and services.